Simultaneous Nadir Overpasses (SNOs) Predictions

Prediction of SNOs between AQUA and METOP-C Satellite Orbit:

Table of predicted SNOs for the next 14.0 days since TLE Epoch: 2/1/2019
Index Date (AQUA) Time (AQUA) Lat,Lon (AQUA) SZA (AQUA ) Date (METOP-C) Time (METOP-C) Lat,Lon (METOP-C) SZA (METOP-C ) Distance(km) Time Diff (sec)
1 02/03/2019 04:29:38 -73.77, -73.06 89.52 02/03/2019 04:29:02 -73.79, -73.11 89.49 2.62 36
2 02/03/2019 05:19:07 73.84, 94.43 90.55 02/03/2019 05:19:40 73.83, 94.32 90.54 3.36 33
3 02/06/2019 00:03:55 -73.82, -6.73 90.31 02/06/2019 00:03:26 -73.82, -6.62 90.30 3.54 29
4 02/06/2019 00:53:23 73.84, 160.85 89.72 02/06/2019 00:54:04 73.87, 160.82 89.73 2.50 41
5 02/08/2019 19:38:10 -73.82, 59.70 91.18 02/08/2019 19:37:50 -73.81, 59.76 91.19 2.17 20
6 02/08/2019 20:27:38 73.86,-132.74 88.85 02/08/2019 20:28:28 73.86,-132.80 88.85 1.73 50
7 02/11/2019 14:22:51 73.36, -40.50 87.42 02/11/2019 14:21:42 73.32, -42.30 87.48 57.59 69
8 02/11/2019 15:12:26 -73.83, 126.12 92.08 02/11/2019 15:12:15 -73.80, 126.14 92.11 3.52 11
9 02/11/2019 16:01:54 73.87, -66.34 87.96 02/11/2019 16:02:52 73.90, -66.29 87.97 2.85 58
10 02/14/2019 09:57:13 73.69, 25.22 86.84 02/14/2019 09:56:00 73.66, 24.88 86.84 11.38 73
11 02/14/2019 10:46:42 -73.84,-167.47 93.01 02/14/2019 10:46:39 -73.84,-167.37 93.02 3.23 3




NCC Satellite Simultaneous Nadir Overpasses (SNOs) Prediction Service
